Terminal Aerodrome Forecast
Issued by NWS

Home | Current Version | Previous Version | Text Only | Print | Product List | Glossary On
Versions: 1 2 3 4 5 6 7 8 9 10 11 12 13 14 15 16 17 18 19 20 21 22 23 24 25 26 27 28 29 30 31 32 33 34 35 36 37 38 39 40 41 42 43 44 45 46 47 48 49 50
299
FTUS41 KCTP 131723
TAFBFD
TAF
KBFD 131723Z 1318/1418 31018G27KT 1 1/2SM -SN BKN028 OVC040
      TEMPO 1319/1323 30012G22KT 1/2SM SHSN BKN030
     FM140000 30013G20KT P6SM OVC018
     FM141600 30005KT P6SM OVC035=

USA.gov is the U.S. government's official web portal to all federal, state and local government web resources and services.